User: anonymous   Login
Location: Home
(42.5358°N, 72.7383°W)
Time: 21:25:01
(UTC-04:00)
Language:

FENGYUN 1C DEB - Orbit

View from above orbital plane
View from above orbital plane
View from above satellite
View from above satellite

Ground track
Ground track

The orbit data is extracted from the following two-line orbital elements,

1 30876U 99025AXN 22181.01398681  .00000378  00000-0  29211-3 0  9995
2 30876  98.7925 203.4384 0069177 174.9556 253.1710 13.97571428780772
Epoch (UTC): 30 June 2022 00:20:08
Eccentricity: 0.0069177
inclination: 98.7925°
perigee height: 852 km
apogee height: 952 km
right ascension of ascending node: 203.4384°
argument of perigee: 174.9556°
revolutions per day: 13.97571428
mean anomaly at epoch: 253.1710°
orbit number at epoch: 78077

The dashed part of the orbit path shows where the satellite is in the earth's shadow,  

DLR